STARLINK-4165 (53286 NORAD) Tracking and Keplerian Element Data

This shows tracking and keplerian element data for the satellite.

Feedback or suggestion? Click here.




ElementValue
Catalog53286
NameSTARLINK-4165
Epoch Orbit1081
Epoch Day270.25001157
Epoch Year2022
RAAN83.2238
Inclination53.2175
Eccentricity0.0001821
Argument of Perigee33.1922
Mean Anonmoly122.1119
Mean Motion15.63092958
Decay Rate-0.01094047
L11 53286U 22086AW 22270.25001157 -.01094047 00000+0 -12977-1 0 9999
L22 53286 53.2175 83.2238 0001821 33.1922 122.1119 15.63092958 10812

Live tracking and technical data element details for STARLINK-4165 (NORAD 53286). STARLINK-4165 can be tracked NOW for your location showing map with azimuth and elevation plus other details from your city location.

Track the satellite on the map from your city or location and see movement details for azimuth, elevation, latitude, longitude, range, height, and movement on the map or in text.







IsCatalogInMostPopularTable: catalog: 53286, numindb: 5
Update: records affected: 1



GetName: 53286 STARLINK-4165

Hit Count: updated at: Thu, 29 Sep 2022 11:36:59 GMT